Regional Weather Roundup
Issued by NWS

Home | Current Version | Previous Version | Graphics & Text | Print | Product List | Glossary On
Versions: 1 2 3 4 5 6 7 8 9 10 11 12 13 14 15 16 17 18 19 20 21 22 23 24 25 26 27 28 29 30 31 32 33 34 35 36 37 38 39 40 41 42 43 44 45 46 47 48 49 50
000
ASUS43 KMKX 220921
RWRWI

WISCONSIN REGIONAL WEATHER ROUNDUP
NATIONAL WEATHER SERVICE MILWAUKEE/SULLIVAN WI
300 AM CST WED FEB 22 2017

NOTE: "FAIR" INDICATES FEW OR NO CLOUDS BELOW 12,000 FEET WITH NO
SIGNIFICANT WEATHER AND/OR OBSTRUCTIONS TO VISIBILITY.

WIZ001-002-006>008-014>016-023>028-221000-
NORTHWEST WISCONSIN

CITY           SKY/WX    TMP DP  RH WIND       PRES   REMARKS
SUPERIOR ARPT  PTCLDY    30  30  99 CALM      29.63F FOG
ASHLAND        PTCLDY    39  36  89 S5        29.64F
HAYWARD        CLOUDY    32  30  92 CALM      29.64F
SIREN          CLOUDY    32  32  99 CALM      29.63F
CUMBERLAND     FOG       34  32  93 CALM      29.64F VSB 1/4
RICE LAKE      PTCLDY    34  34  98 CALM      29.66F
CHETEK         PTCLDY    35  35 100 CALM      29.66F
LADYSMITH      CLOUDY    41  37  84 S3        29.68F
EAU CLAIRE     CLOUDY    38  37  97 SW5       29.65F WCI  34
MENOMONIE      MOCLDY    37  35  92 CALM      29.64F
NEW RICHMOND   CLOUDY    38  38 100 SE3       29.64F FOG
OSCEOLA        FOG       36  36 100 CALM      29.67F VSB 1/2
$$

WIZ003>005-009-010-017-018-221000-
NORTH CENTRAL WISCONSIN

CITY           SKY/WX    TMP DP  RH WIND       PRES   REMARKS
MANITOWISH WTR CLOUDY    40  36  86 S5        29.64F
ARBOR VITAE    MOCLDY    42  35  75 CALM        N/A
WOODRUFF       MOCLDY    42  35  75 CALM        N/A
RHINELANDER    PTCLDY    43  34  70 SW3       29.67F
EAGLE RIVER    MOCLDY    42  32  66 CALM      29.65F
LAND O LAKES   CLOUDY    40  33  76 CALM      29.66F
PHILLIPS       CLOUDY    37  35  90 CALM      29.64F
TOMAHAWK       CLOUDY    36  32  85 CALM      29.68F
MEDFORD        PTCLDY    39  35  84 S6        29.67F
MERRILL        NOT AVBL
$$

WIZ029-030-035-036-043>047-221000-
CENTRAL WISCONSIN

CITY           SKY/WX    TMP DP  RH WIND       PRES   REMARKS
WAUSAU         CLOUDY    44  35  70 SE3       29.68F
MOSINEE        PTCLDY    37  34  87 S6        29.70F WCI  33
MARSHFIELD     PTCLDY    41  35  79 CALM      29.68F
STEVENS POINT  CLEAR     34  32  95 CALM      29.71F
WAUPACA        CLEAR     43  35  73 CALM      29.73S
WAUTOMA        CLEAR     33  31  92 CALM      29.73F
WISC RAPIDS    PTCLDY    36  34  92 S3        29.71F
CAMP DOUGLAS   CLEAR     50  38  64 S8        29.70F
$$

WIZ011>013-019>022-031-037>040-048>050-221000-
NORTHEAST WISCONSIN

CITY           SKY/WX    TMP DP  RH WIND       PRES   REMARKS
ANTIGO         PTCLDY    39  34  80 SW5       29.69F
SHAWANO        PTCLDY    41  35  79 CALM      29.71F
OCONTO         CLEAR     34  32  92 CALM      29.71S
STURGEON BAY   MOCLDY    41  38  89 SE5       29.73F
GREEN BAY      CLEAR     42  37  82 CALM      29.72F
MANITOWOC      CLEAR     37  35  92 CALM      29.74F FOG
APPLETON       CLEAR     37  32  81 S6        29.72S WCI  33
CLINTONVILLE   CLEAR     36  32  87 CALM      29.71F
OSHKOSH        CLEAR     45  38  76 S10       29.72F
$$

WIZ032>034-041-042-053>061-221000-
SOUTHWEST WISCONSIN

CITY           SKY/WX    TMP DP  RH WIND       PRES   REMARKS
LA CROSSE      CLEAR     47  37  68 S9        29.70F
SPARTA         CLEAR     47  37  68 CALM      29.70F
VIROQUA        CLEAR     47  38  71 SW10      29.71F
BOSCOBEL       CLEAR     37  34  89 SW3       29.74F FOG
PRAIRIE DU CHI CLEAR     49  39  70 CALM      29.73F
PLATTEVILLE    CLEAR     45  45 100 S9        29.77F
$$

WIZ056-057-062-063-064-067-068-221000-
SOUTH CENTRAL WISCONSIN

CITY           SKY/WX    TMP DP  RH WIND       PRES   REMARKS
REEDSBURG      CLEAR     49  46  87 S12G18    29.72F
BARABOO/DELLS  CLEAR     51  43  75 SW8       29.73F
LONE ROCK      CLEAR     50  45  83 SW7       29.74F
MINERAL POINT  CLEAR     45  45 100 S6        29.75F
MADISON        CLEAR     47  42  83 SW5       29.75F
MIDDLETON      CLEAR     54  48  81 SW10      29.75F
WATERTOWN      CLEAR     42  42 100 S3        29.77F
MONROE         CLEAR     45  45 100 SW15      29.78F
JANESVILLE     FOG       50  50 100 S6        29.79S VSB 1/2
$$

WIZ051-052-058>065-066-070>072-221000-
SOUTHEAST WISCONSIN

CITY           SKY/WX    TMP DP  RH WIND       PRES   REMARKS
MILWAUKEE      CLEAR     41  39  93 CALM      29.78F FOG
WAUKESHA       CLEAR     45  43  93 SW5       29.79F
MILWAUKEE/TIMM CLEAR     45  43  93 SW7       29.78F
RACINE         CLEAR     50  48  93 SW7       29.80F FOG
KENOSHA        FOG       46  45  96 SW6       29.79F VSB 1/4
FOND DU LAC    CLEAR     49  41  74 SW12      29.74F
SHEBOYGAN      CLEAR     43  37  79 S6        29.75F
WEST BEND      CLEAR     50  46  87 SW6       29.76F
JUNEAU         CLEAR     44  41  86 S8        29.77S
$$

LSZ147-162-221000-
LAKE SUPERIOR

STATION/POSITION TIME  TEMP    WIND        PRES    WAVE
                       AIR SEA DIR/SP/G            HT/PER
                 (UTC) (F)     (DEG/KT/KT) (MB)    (FT/S)
DEVILS ISLAND    0900   44     210/  6/  6 1003.6F
PORT WING        0840   31     290/  4/  4 1004.1F
SAXON HARBOR     0830   39     190/  3/  5 1003.4F
$$

LMZ867-665-643>646-221000-
LAKE MICHIGAN

STATION/POSITION TIME  TEMP    WIND        PRES    WAVE
                       AIR SEA DIR/SP/G            HT/PER
                 (UTC) (F)     (DEG/KT/KT) (MB)    (FT/S)
CHAMBERS ISLAND  0840   49     170/  5/ 10 1005.8F
NORTHPORT PIER   0840   40     150/  2/  5 1006.4F
SISTER BAY       0835   45     140/ 10/ 12   N/A
ALGOMA LAKESHORE 0810          210/  6/  7   N/A
KEWAUNEE LAKESHO 0900   38     190/  5/  8 1006.7
SHEBOYGAN LAKESH 0900   39     190/ 10/ 11 1007.6F
PORT WASHINGTON  0840   39     300/  1/  2 1009.1F
MILWAUKEE LAKESH 0900   46     180/  8/  8   N/A
KENOSHA   LAKESH 0900   48     200/  5/  6 1009.1
$$

TC  - TEMPERATURE IN CELSIUS
VSB - VISIBILITY IN STATUTE MILES
WCI - WIND CHILL INDEX
HX  - HEAT INDEX




USA.gov is the U.S. government's official web portal to all federal, state and local government web resources and services.